Flag for Greece Weather past 2 weeks in Patras, Greece

Now
79 °F

Passing clouds.


Feels Like: 82 °F
Forecast: 66 / 87 °F
Wind: 3 mph from Southwest

Location: Araxos Airport

Current Time: Jul 23, 2014 at 10:48:24 AM

Latest Report: Jul 23, 2014 at 8:50 AM


Visibility: N/A

Pressure: 29.74 "Hg

Humidity: 79%

Dew point: 72 °F

Location of PatrasLocation

Historic Weather in Patras — Graph

°F

Patras temperature yesterday

Maximum temperature yesterday: 93 °F (at 12:50 PM)
Minimum temperature yesterday: 70 °F (at 4:50 AM)
Average temperature yesterday: 82 °F

Past Weeks' High & Low Weather Summary

 TemperatureHumidityPressure
High93 °F (Jul 20, 4:20 PM)100% (Jul 11, 2:50 AM)29.98 "Hg (Jul 11, 2:50 AM)
Low61 °F (Jul 13, 6:20 AM)24% (Jul 22, 12:50 PM)29.71 "Hg (Jul 10, 7:20 PM)
Average79 °F68%29.85 "Hg
* Reported Jul 8 7:20 AM — Jul 23 7:50 AM, Patras, Weather by CustomWeather, © 2014

Note: Actual official high and low records may vary slightly from our data, if they occured in-between our weather recording intervals... More about our weather records

Advertising

Patras weather history for previous 24 hours

 ConditionsComfort  
Time TempWeatherWind HumidityBarometerVisibility
7:50 AM
Jul 23
75 °FFog.No wind89%29.71 "Hg3 mi
7:20 AM73 °FPassing clouds.No wind94%29.71 "HgN/A
6:50 AM73 °FPassing clouds.No wind94%29.71 "HgN/A
6:20 AM73 °FPassing clouds.No wind94%29.71 "HgN/A
5:50 AM73 °FPassing clouds.No wind94%29.71 "HgN/A
4:50 AM75 °FPassing clouds.3 mph89%29.71 "HgN/A
3:50 AM75 °FPassing clouds.3 mph89%29.71 "HgN/A
2:50 AM73 °FPassing clouds.3 mph94%29.74 "HgN/A
1:50 AM75 °FPassing clouds.3 mph89%29.74 "HgN/A
7:50 PM
Jul 22
82 °FPassing clouds.13 mph70%29.71 "HgN/A
6:50 PM82 °FScattered clouds.15 mph66%29.71 "HgN/A
6:20 PM84 °FScattered clouds.12 mph62%29.74 "HgN/A
5:50 PM86 °FScattered clouds.16 mph55%29.74 "HgN/A
5:20 PM86 °FScattered clouds.15 mph55%29.74 "HgN/A
4:50 PM88 °FPassing clouds.16 mph52%29.74 "HgN/A
4:20 PM88 °FPassing clouds.18 mph52%29.74 "HgN/A
3:50 PM88 °FPassing clouds.17 mph49%29.74 "HgN/A
3:20 PM88 °FPassing clouds.18 mph49%29.77 "HgN/A
2:50 PM90 °FPassing clouds.18 mph49%29.77 "HgN/A
2:20 PM88 °FPassing clouds.20 mph52%29.77 "HgN/A
1:50 PM88 °FSunny.20 mph49%29.77 "Hg10 mi
1:20 PM88 °FSunny.18 mph49%29.77 "Hg10 mi
12:50 PM93 °FSunny.17 mph24%29.77 "Hg10 mi
12:20 PM91 °FSunny.13 mph28%29.77 "Hg10 mi
11:50 AM91 °FSunny.9 mph30%29.77 "Hg10 mi
11:20 AM90 °FPassing clouds.3 mph43%29.77 "HgN/A
10:50 AM86 °FPassing clouds.5 mph55%29.77 "HgN/A
10:20 AM82 °FPassing clouds.5 mph70%29.77 "HgN/A
Weather by CustomWeather, © 2014

See weather overviewHow to use our weather pages